Time,TemperatureF,DewpointF,PressureIn,WindDirection,WindDirectionDegrees,WindSpeedMPH,WindSpeedGustMPH,Humidity,HourlyPrecipIn,Conditions,Clouds,dailyrainin,SoftwareType,DateUTC
2013-02-28 00:02:00,34.0,33.4,29.64,NNW,338,2.0,4.0,98,0.00,,,0.05,meteohub,2013-02-28 05:02:00,
2013-02-28 00:07:00,34.0,33.4,29.64,NNW,338,2.0,4.0,98,0.00,,,0.05,meteohub,2013-02-28 05:07:00,
2013-02-28 00:12:00,34.0,33.4,29.64,NNW,338,3.0,4.0,98,0.00,,,0.05,meteohub,2013-02-28 05:12:00,
2013-02-28 00:17:00,34.0,33.4,29.64,NNW,338,2.0,4.0,98,0.00,,,0.05,meteohub,2013-02-28 05:17:00,
2013-02-28 00:22:00,34.0,33.4,29.64,NW,315,2.0,4.0,98,0.00,,,0.05,meteohub,2013-02-28 05:22:00,
2013-02-28 00:27:00,34.0,33.4,29.64,North,0,4.0,4.0,98,0.00,,,0.05,meteohub,2013-02-28 05:27:00,
2013-02-28 00:32:00,34.0,33.4,29.64,NNE,22,2.0,4.0,98,0.00,,,0.05,meteohub,2013-02-28 05:32:00,
2013-02-28 00:37:00,34.0,33.4,29.64,NNW,338,3.0,4.0,98,0.00,,,0.05,meteohub,2013-02-28 05:37:00,
2013-02-28 00:42:00,34.0,33.4,29.64,NNW,338,3.0,4.0,98,0.00,,,0.05,meteohub,2013-02-28 05:42:00,
2013-02-28 00:47:00,34.0,33.4,29.64,NNW,338,2.0,4.0,98,0.00,,,0.05,meteohub,2013-02-28 05:47:00,
2013-02-28 00:52:00,34.0,33.4,29.64,NNW,338,2.0,4.0,98,0.00,,,0.05,meteohub,2013-02-28 05:52:00,
2013-02-28 00:57:00,34.0,33.4,29.64,NNW,338,2.0,4.0,98,0.00,,,0.05,meteohub,2013-02-28 05:57:00,
2013-02-28 01:02:00,34.0,33.4,29.64,NW,315,2.0,4.0,98,0.00,,,0.05,meteohub,2013-02-28 06:02:00,
2013-02-28 01:07:00,34.0,33.4,29.64,NNW,338,1.0,4.0,98,0.00,,,0.05,meteohub,2013-02-28 06:07:00,
2013-02-28 01:12:00,34.0,33.4,29.64,NW,315,2.0,4.0,98,0.00,,,0.05,meteohub,2013-02-28 06:12:00,
2013-02-28 01:17:00,34.0,33.4,29.64,NNW,338,0.0,2.0,98,0.00,,,0.05,meteohub,2013-02-28 06:17:00,
2013-02-28 01:27:00,34.0,33.4,29.64,WNW,292,1.0,2.0,98,0.00,,,0.05,meteohub,2013-02-28 06:27:00,
2013-02-28 01:32:00,33.8,33.3,29.64,NW,315,0.0,2.0,98,0.00,,,0.05,meteohub,2013-02-28 06:32:00,
2013-02-28 01:37:00,33.8,33.3,29.64,WSW,248,2.0,2.0,98,0.00,,,0.05,meteohub,2013-02-28 06:37:00,
2013-02-28 01:42:00,33.8,33.3,29.64,WSW,248,1.0,2.0,98,0.00,,,0.05,meteohub,2013-02-28 06:42:00,
2013-02-28 01:47:00,33.8,33.3,29.64,WSW,248,1.0,2.0,98,0.00,,,0.05,meteohub,2013-02-28 06:47:00,
2013-02-28 01:52:00,33.8,33.3,29.64,WNW,292,0.0,2.0,98,0.00,,,0.05,meteohub,2013-02-28 06:52:00,
2013-02-28 01:57:00,33.8,33.3,29.64,WNW,292,0.0,2.0,98,0.00,,,0.05,meteohub,2013-02-28 06:57:00,
2013-02-28 02:02:00,33.8,33.3,29.67,WNW,292,0.0,2.0,98,0.00,,,0.05,meteohub,2013-02-28 07:02:00,
2013-02-28 02:07:00,33.8,33.3,29.67,NNW,338,0.0,0.0,98,0.00,,,0.05,meteohub,2013-02-28 07:07:00,
2013-02-28 02:12:00,33.8,33.3,29.64,NNW,338,0.0,1.0,98,0.00,,,0.05,meteohub,2013-02-28 07:12:00,
2013-02-28 02:17:00,33.8,33.3,29.64,NW,315,0.0,1.0,98,0.00,,,0.05,meteohub,2013-02-28 07:17:00,
2013-02-28 02:22:00,33.8,33.3,29.64,NW,315,0.0,1.0,98,0.00,,,0.05,meteohub,2013-02-28 07:22:00,
2013-02-28 02:27:00,33.8,33.3,29.64,North,0,2.0,3.0,98,0.00,,,0.05,meteohub,2013-02-28 07:27:00,
2013-02-28 02:32:00,33.8,33.3,29.64,NNW,338,0.0,3.0,98,0.00,,,0.05,meteohub,2013-02-28 07:32:00,
2013-02-28 02:37:00,33.8,33.3,29.64,North,0,0.0,2.0,98,0.00,,,0.05,meteohub,2013-02-28 07:37:00,
2013-02-28 02:42:00,33.8,33.3,29.64,NW,315,0.0,2.0,98,0.00,,,0.05,meteohub,2013-02-28 07:42:00,
2013-02-28 02:52:00,33.6,33.1,29.64,NNW,338,0.0,2.0,98,0.00,,,0.05,meteohub,2013-02-28 07:52:00,
2013-02-28 03:02:00,33.6,33.1,29.64,NW,315,1.0,3.0,98,0.00,,,0.05,meteohub,2013-02-28 08:02:00,
2013-02-28 03:12:00,33.6,33.1,29.64,North,0,0.0,2.0,98,0.00,,,0.05,meteohub,2013-02-28 08:12:00,
2013-02-28 03:17:00,33.6,33.1,29.64,NNW,338,0.0,2.0,98,0.00,,,0.05,meteohub,2013-02-28 08:17:00,
2013-02-28 03:22:00,33.6,33.1,29.64,NW,315,0.0,1.0,98,0.00,,,0.05,meteohub,2013-02-28 08:22:00,
2013-02-28 03:32:00,33.6,33.1,29.64,WNW,292,0.0,0.0,98,0.00,,,0.05,meteohub,2013-02-28 08:32:00,
2013-02-28 03:37:00,33.4,32.9,29.64,WNW,292,0.0,0.0,98,0.00,,,0.05,meteohub,2013-02-28 08:37:00,
2013-02-28 03:47:00,33.4,32.9,29.64,NW,315,0.0,0.0,98,0.00,,,0.05,meteohub,2013-02-28 08:47:00,
2013-02-28 03:52:00,33.3,32.7,29.64,NW,315,0.0,0.0,98,0.00,,,0.05,meteohub,2013-02-28 08:52:00,
2013-02-28 03:57:00,33.3,32.7,29.67,West,270,0.0,0.0,98,0.00,,,0.05,meteohub,2013-02-28 08:57:00,
2013-02-28 04:02:00,33.3,32.7,29.67,NW,315,0.0,0.0,98,0.00,,,0.05,meteohub,2013-02-28 09:02:00,
2013-02-28 04:07:00,33.3,32.7,29.67,NW,315,0.0,0.0,98,0.00,,,0.05,meteohub,2013-02-28 09:07:00,
2013-02-28 04:12:00,33.1,32.5,29.64,NW,315,0.0,0.0,98,0.00,,,0.05,meteohub,2013-02-28 09:12:00,
2013-02-28 04:22:00,33.1,32.5,29.64,WNW,292,0.0,0.0,98,0.00,,,0.05,meteohub,2013-02-28 09:22:00,
2013-02-28 04:27:00,33.1,32.5,29.64,NNE,22,0.0,0.0,98,0.00,,,0.05,meteohub,2013-02-28 09:27:00,
2013-02-28 04:37:00,32.9,32.4,29.64,NNE,22,0.0,0.0,98,0.00,,,0.05,meteohub,2013-02-28 09:37:00,
2013-02-28 04:42:00,32.9,32.4,29.67,NNE,22,0.0,0.0,98,0.00,,,0.05,meteohub,2013-02-28 09:42:00,
2013-02-28 04:52:00,32.9,32.4,29.67,East,90,0.0,0.0,98,0.00,,,0.05,meteohub,2013-02-28 09:52:00,
2013-02-28 04:57:00,33.1,32.5,29.67,East,90,0.0,0.0,98,0.00,,,0.05,meteohub,2013-02-28 09:57:00,
2013-02-28 05:02:00,33.1,32.5,29.70,East,90,0.0,0.0,98,0.00,,,0.05,meteohub,2013-02-28 10:02:00,
2013-02-28 05:07:00,33.1,32.5,29.70,SSE,158,0.0,0.0,98,0.00,,,0.05,meteohub,2013-02-28 10:07:00,
2013-02-28 05:12:00,33.1,32.5,29.70,ESE,112,0.0,0.0,98,0.00,,,0.05,meteohub,2013-02-28 10:12:00,
2013-02-28 05:17:00,33.1,32.5,29.70,ESE,112,0.0,0.0,98,0.00,,,0.05,meteohub,2013-02-28 10:17:00,
2013-02-28 05:22:00,33.1,32.5,29.70,East,90,0.0,0.0,98,0.00,,,0.05,meteohub,2013-02-28 10:22:00,
2013-02-28 05:27:00,33.1,32.5,29.70,East,90,0.0,0.0,98,0.00,,,0.05,meteohub,2013-02-28 10:27:00,
2013-02-28 05:37:00,33.1,32.5,29.70,ESE,112,0.0,0.0,98,0.00,,,0.05,meteohub,2013-02-28 10:37:00,
2013-02-28 05:42:00,32.9,32.4,29.70,ESE,112,0.0,0.0,98,0.00,,,0.05,meteohub,2013-02-28 10:42:00,
2013-02-28 05:47:00,32.7,32.2,29.70,WSW,248,0.0,0.0,98,0.00,,,0.05,meteohub,2013-02-28 10:47:00,
2013-02-28 05:52:00,32.7,32.2,29.70,WSW,248,0.0,0.0,98,0.00,,,0.05,meteohub,2013-02-28 10:52:00,
2013-02-28 05:57:00,32.5,32.0,29.70,SW,225,0.0,0.0,98,0.00,,,0.05,meteohub,2013-02-28 10:57:00,
2013-02-28 06:02:00,32.5,32.0,29.70,SSW,202,0.0,0.0,98,0.00,,,0.05,meteohub,2013-02-28 11:02:00,
2013-02-28 06:07:00,32.5,32.0,29.70,SSW,202,0.0,0.0,98,0.00,,,0.05,meteohub,2013-02-28 11:07:00,
2013-02-28 06:12:00,32.5,32.0,29.70,SSW,202,0.0,0.0,98,0.00,,,0.05,meteohub,2013-02-28 11:12:00,
2013-02-28 06:17:00,32.5,32.0,29.70,SSW,202,0.0,0.0,98,0.00,,,0.05,meteohub,2013-02-28 11:17:00,
2013-02-28 06:22:00,32.5,32.0,29.70,SSW,202,0.0,0.0,98,0.00,,,0.05,meteohub,2013-02-28 11:22:00,
2013-02-28 06:32:00,32.7,32.2,29.70,SSW,202,0.0,0.0,98,0.00,,,0.05,meteohub,2013-02-28 11:32:00,
2013-02-28 06:37:00,32.7,32.2,29.70,South,180,0.0,0.0,98,0.00,,,0.05,meteohub,2013-02-28 11:37:00,
2013-02-28 06:42:00,32.7,32.2,29.70,NE,45,0.0,0.0,98,0.00,,,0.05,meteohub,2013-02-28 11:42:00,
2013-02-28 06:47:00,32.7,32.2,29.70,ENE,68,0.0,0.0,98,0.00,,,0.05,meteohub,2013-02-28 11:47:00,
2013-02-28 06:52:00,32.9,32.4,29.70,South,180,0.0,0.0,98,0.00,,,0.05,meteohub,2013-02-28 11:52:00,
2013-02-28 06:57:00,33.1,32.5,29.67,South,180,0.0,0.0,98,0.00,,,0.05,meteohub,2013-02-28 11:57:00,
2013-02-28 07:02:00,33.3,32.7,29.67,South,180,0.0,0.0,98,0.00,,,0.05,meteohub,2013-02-28 12:02:00,
2013-02-28 07:07:00,33.4,32.9,29.67,South,180,0.0,0.0,98,0.00,,,0.05,meteohub,2013-02-28 12:07:00,
2013-02-28 07:12:00,33.6,33.1,29.67,ESE,112,0.0,0.0,98,0.00,,,0.05,meteohub,2013-02-28 12:12:00,
2013-02-28 07:17:00,33.8,33.3,29.67,SSE,158,0.0,0.0,98,0.00,,,0.05,meteohub,2013-02-28 12:17:00,
2013-02-28 07:22:00,34.0,33.4,29.67,SSE,158,0.0,0.0,98,0.00,,,0.05,meteohub,2013-02-28 12:22:00,
2013-02-28 07:27:00,34.2,33.6,29.70,SSW,202,0.0,0.0,98,0.00,,,0.05,meteohub,2013-02-28 12:27:00,
2013-02-28 07:32:00,34.5,34.0,29.70,SSW,202,0.0,0.0,98,0.00,,,0.05,meteohub,2013-02-28 12:32:00,
2013-02-28 07:37:00,35.1,34.5,29.70,SE,135,0.0,0.0,98,0.00,,,0.05,meteohub,2013-02-28 12:37:00,
2013-02-28 07:42:00,35.4,34.9,29.70,SSW,202,0.0,0.0,98,0.00,,,0.05,meteohub,2013-02-28 12:42:00,
2013-02-28 07:47:00,35.6,35.1,29.70,South,180,0.0,0.0,98,0.00,,,0.05,meteohub,2013-02-28 12:47:00,
2013-02-28 07:52:00,35.6,35.1,29.70,East,90,0.0,0.0,98,0.00,,,0.05,meteohub,2013-02-28 12:52:00,
2013-02-28 07:57:00,35.6,35.1,29.70,WSW,248,0.0,0.0,98,0.00,,,0.05,meteohub,2013-02-28 12:57:00,
2013-02-28 08:02:00,35.6,35.1,29.73,SSW,202,2.0,2.0,98,0.00,,,0.05,meteohub,2013-02-28 13:02:00,
2013-02-28 08:07:00,35.6,35.1,29.73,WSW,248,3.0,3.0,98,0.00,,,0.05,meteohub,2013-02-28 13:07:00,
2013-02-28 08:12:00,35.8,35.2,29.70,WSW,248,2.0,3.0,98,0.00,,,0.05,meteohub,2013-02-28 13:12:00,
2013-02-28 08:17:00,36.1,35.6,29.70,WSW,248,0.0,3.0,98,0.00,,,0.05,meteohub,2013-02-28 13:17:00,
2013-02-28 08:22:00,36.3,35.8,29.70,WSW,248,0.0,3.0,98,0.00,,,0.05,meteohub,2013-02-28 13:22:00,
2013-02-28 08:27:00,36.3,35.8,29.70,West,270,2.0,3.0,98,0.00,,,0.05,meteohub,2013-02-28 13:27:00,
2013-02-28 08:32:00,36.3,35.8,29.70,SW,225,1.0,3.0,98,0.00,,,0.05,meteohub,2013-02-28 13:32:00,
2013-02-28 08:37:00,36.3,35.8,29.70,SSW,202,1.0,3.0,98,0.00,,,0.05,meteohub,2013-02-28 13:37:00,
2013-02-28 08:42:00,36.1,35.6,29.70,WSW,248,1.0,3.0,98,0.00,,,0.05,meteohub,2013-02-28 13:42:00,
2013-02-28 08:47:00,36.1,35.6,29.70,SSW,202,4.0,4.0,98,0.00,,,0.05,meteohub,2013-02-28 13:47:00,
2013-02-28 08:52:00,36.3,35.8,29.70,WSW,248,1.0,4.0,98,0.00,,,0.05,meteohub,2013-02-28 13:52:00,
2013-02-28 08:57:00,36.3,35.8,29.70,WSW,248,2.0,4.0,98,0.00,,,0.05,meteohub,2013-02-28 13:57:00,
2013-02-28 09:02:00,36.5,36.0,29.70,South,180,0.0,4.0,98,0.00,,,0.05,meteohub,2013-02-28 14:02:00,
2013-02-28 09:07:00,36.3,35.8,29.70,SW,225,2.0,3.0,98,0.00,,,0.05,meteohub,2013-02-28 14:07:00,
2013-02-28 09:12:00,36.3,35.8,29.70,SSW,202,0.0,3.0,98,0.00,,,0.05,meteohub,2013-02-28 14:12:00,
2013-02-28 09:17:00,36.3,35.8,29.67,SW,225,0.0,3.0,98,0.00,,,0.05,meteohub,2013-02-28 14:17:00,
2013-02-28 09:22:00,36.3,35.8,29.67,SSW,202,0.0,3.0,98,0.00,,,0.05,meteohub,2013-02-28 14:22:00,
2013-02-28 09:27:00,36.3,35.8,29.67,SSE,158,2.0,2.0,98,0.00,,,0.05,meteohub,2013-02-28 14:27:00,
2013-02-28 09:32:00,36.5,36.0,29.67,WSW,248,2.0,3.0,98,0.00,,,0.05,meteohub,2013-02-28 14:32:00,
2013-02-28 09:37:00,36.5,36.0,29.67,SSW,202,0.0,3.0,98,0.00,,,0.05,meteohub,2013-02-28 14:37:00,
2013-02-28 09:42:00,36.7,36.1,29.70,SSW,202,2.0,3.0,98,0.00,,,0.05,meteohub,2013-02-28 14:42:00,
2013-02-28 09:47:00,37.0,36.5,29.70,SE,135,2.0,2.0,98,0.04,,,0.09,meteohub,2013-02-28 14:47:00,
2013-02-28 09:52:00,37.0,36.5,29.70,SSW,202,1.0,3.0,98,0.04,,,0.09,meteohub,2013-02-28 14:52:00,
2013-02-28 09:57:00,37.2,36.7,29.70,West,270,2.0,3.0,98,0.04,,,0.09,meteohub,2013-02-28 14:57:00,
2013-02-28 10:02:00,37.4,36.9,29.70,WSW,248,0.0,3.0,98,0.04,,,0.09,meteohub,2013-02-28 15:02:00,
2013-02-28 10:07:00,37.8,37.2,29.70,SSW,202,0.0,3.0,98,0.04,,,0.09,meteohub,2013-02-28 15:07:00,
2013-02-28 10:12:00,38.1,37.6,29.70,SW,225,5.0,5.0,98,0.04,,,0.09,meteohub,2013-02-28 15:12:00,
2013-02-28 10:17:00,38.3,37.8,29.70,South,180,2.0,5.0,98,0.04,,,0.09,meteohub,2013-02-28 15:17:00,
2013-02-28 10:22:00,38.3,37.8,29.70,WNW,292,2.0,5.0,98,0.04,,,0.09,meteohub,2013-02-28 15:22:00,
2013-02-28 10:27:00,38.3,37.8,29.70,WSW,248,2.0,5.0,98,0.04,,,0.09,meteohub,2013-02-28 15:27:00,
2013-02-28 10:32:00,38.5,37.9,29.70,SW,225,0.0,3.0,98,0.04,,,0.09,meteohub,2013-02-28 15:32:00,
2013-02-28 10:37:00,38.7,38.1,29.70,South,180,2.0,3.0,98,0.04,,,0.09,meteohub,2013-02-28 15:37:00,
2013-02-28 10:42:00,39.0,38.5,29.70,South,180,2.0,3.0,98,0.04,,,0.09,meteohub,2013-02-28 15:42:00,
2013-02-28 10:47:00,39.2,38.7,29.70,WSW,248,0.0,3.0,98,0.00,,,0.09,meteohub,2013-02-28 15:47:00,
2013-02-28 10:57:00,39.7,39.2,29.70,ESE,112,0.0,4.0,98,0.00,,,0.09,meteohub,2013-02-28 15:57:00,
2013-02-28 11:02:00,40.3,39.7,29.70,East,90,0.0,4.0,98,0.00,,,0.09,meteohub,2013-02-28 16:02:00,
2013-02-28 11:07:00,40.3,39.7,29.70,ESE,112,0.0,3.0,98,0.00,,,0.09,meteohub,2013-02-28 16:07:00,
2013-02-28 11:12:00,40.1,39.6,29.70,SW,225,0.0,2.0,98,0.00,,,0.09,meteohub,2013-02-28 16:12:00,
2013-02-28 11:17:00,39.9,39.4,29.67,SSW,202,0.0,3.0,98,0.00,,,0.09,meteohub,2013-02-28 16:17:00,
2013-02-28 11:22:00,39.9,39.4,29.67,WSW,248,1.0,3.0,98,0.00,,,0.09,meteohub,2013-02-28 16:22:00,
2013-02-28 11:27:00,39.9,39.2,29.67,SE,135,0.0,3.0,97,0.00,,,0.09,meteohub,2013-02-28 16:27:00,
2013-02-28 11:32:00,40.5,39.7,29.70,ESE,112,1.0,2.0,97,0.00,,,0.09,meteohub,2013-02-28 16:32:00,
2013-02-28 11:42:00,41.0,40.3,29.67,ENE,68,2.0,2.0,97,0.00,,,0.09,meteohub,2013-02-28 16:42:00,
2013-02-28 11:47:00,41.5,40.8,29.67,ESE,112,0.0,2.0,97,0.00,,,0.09,meteohub,2013-02-28 16:47:00,
2013-02-28 11:52:00,42.1,41.4,29.67,East,90,0.0,2.0,97,0.00,,,0.09,meteohub,2013-02-28 16:52:00,
2013-02-28 11:57:00,42.1,41.4,29.67,WSW,248,1.0,3.0,97,0.00,,,0.09,meteohub,2013-02-28 16:57:00,
2013-02-28 12:02:00,42.1,41.0,29.67,WSW,248,3.0,3.0,96,0.00,,,0.09,meteohub,2013-02-28 17:02:00,
2013-02-28 12:07:00,41.7,40.1,29.67,South,180,2.0,4.0,94,0.00,,,0.09,meteohub,2013-02-28 17:07:00,
2013-02-28 12:12:00,42.1,39.9,29.64,SW,225,3.0,4.0,92,0.00,,,0.09,meteohub,2013-02-28 17:12:00,
2013-02-28 12:17:00,42.4,40.8,29.64,NNE,22,1.0,6.0,94,0.00,,,0.09,meteohub,2013-02-28 17:17:00,
2013-02-28 12:22:00,43.2,41.4,29.64,ENE,68,0.0,6.0,93,0.00,,,0.09,meteohub,2013-02-28 17:22:00,
2013-02-28 12:27:00,43.5,41.0,29.64,SE,135,0.0,6.0,91,0.00,,,0.09,meteohub,2013-02-28 17:27:00,
2013-02-28 12:37:00,43.5,40.8,29.64,SW,225,0.0,4.0,90,0.00,,,0.09,meteohub,2013-02-28 17:37:00,
2013-02-28 12:42:00,43.5,40.8,29.64,ENE,68,4.0,4.0,90,0.00,,,0.09,meteohub,2013-02-28 17:42:00,
2013-02-28 12:47:00,43.5,40.3,29.64,NNE,22,0.0,4.0,88,0.00,,,0.09,meteohub,2013-02-28 17:47:00,
2013-02-28 12:52:00,43.7,40.5,29.64,SSE,158,2.0,4.0,88,0.00,,,0.09,meteohub,2013-02-28 17:52:00,
2013-02-28 12:57:00,43.7,39.7,29.64,SSE,158,3.0,4.0,86,0.00,,,0.09,meteohub,2013-02-28 17:57:00,
2013-02-28 13:02:00,44.1,40.5,29.64,SE,135,1.0,4.0,87,0.00,,,0.09,meteohub,2013-02-28 18:02:00,
2013-02-28 13:07:00,44.6,40.6,29.64,SSE,158,1.0,4.0,86,0.00,,,0.09,meteohub,2013-02-28 18:07:00,
2013-02-28 13:12:00,44.4,40.3,29.64,NNW,338,0.0,4.0,85,0.00,,,0.09,meteohub,2013-02-28 18:12:00,
2013-02-28 13:17:00,44.1,39.2,29.64,East,90,2.0,4.0,83,0.00,,,0.09,meteohub,2013-02-28 18:17:00,
2013-02-28 13:22:00,44.1,39.2,29.64,ESE,112,0.0,4.0,83,0.00,,,0.09,meteohub,2013-02-28 18:22:00,
2013-02-28 13:27:00,44.2,40.1,29.64,East,90,0.0,2.0,85,0.00,,,0.09,meteohub,2013-02-28 18:27:00,
2013-02-28 13:32:00,44.4,39.9,29.64,NE,45,3.0,3.0,84,0.00,,,0.09,meteohub,2013-02-28 18:32:00,
2013-02-28 13:37:00,44.4,39.6,29.64,SSE,158,0.0,3.0,83,0.00,,,0.09,meteohub,2013-02-28 18:37:00,
2013-02-28 13:42:00,44.6,39.2,29.64,SE,135,1.0,3.0,81,0.00,,,0.09,meteohub,2013-02-28 18:42:00,
2013-02-28 13:47:00,44.6,39.4,29.64,ENE,68,0.0,3.0,82,0.00,,,0.09,meteohub,2013-02-28 18:47:00,
2013-02-28 13:52:00,44.2,39.0,29.64,West,270,0.0,3.0,82,0.00,,,0.09,meteohub,2013-02-28 18:52:00,
2013-02-28 13:57:00,43.7,38.3,29.64,SW,225,0.0,3.0,81,0.00,,,0.09,meteohub,2013-02-28 18:57:00,
2013-02-28 14:02:00,43.3,37.9,29.64,NW,315,0.0,3.0,81,0.00,,,0.09,meteohub,2013-02-28 19:02:00,
2013-02-28 14:07:00,43.3,37.6,29.64,ENE,68,2.0,2.0,80,0.00,,,0.09,meteohub,2013-02-28 19:07:00,
2013-02-28 14:12:00,43.3,37.9,29.61,East,90,2.0,3.0,81,0.00,,,0.09,meteohub,2013-02-28 19:12:00,
2013-02-28 14:17:00,43.3,38.3,29.61,NE,45,0.0,3.0,82,0.00,,,0.09,meteohub,2013-02-28 19:17:00,
2013-02-28 14:22:00,43.3,38.3,29.61,NE,45,0.0,3.0,82,0.00,,,0.09,meteohub,2013-02-28 19:22:00,
2013-02-28 14:27:00,43.3,37.9,29.61,South,180,0.0,2.0,81,0.00,,,0.09,meteohub,2013-02-28 19:27:00,
2013-02-28 14:32:00,43.5,37.8,29.61,WSW,248,0.0,0.0,80,0.00,,,0.09,meteohub,2013-02-28 19:32:00,
2013-02-28 14:37:00,43.7,37.9,29.61,ENE,68,0.0,0.0,80,0.00,,,0.09,meteohub,2013-02-28 19:37:00,
2013-02-28 14:42:00,43.7,37.6,29.61,SW,225,2.0,0.0,79,0.00,,,0.09,meteohub,2013-02-28 19:42:00,
2013-02-28 14:47:00,43.7,37.6,29.61,WNW,292,1.0,3.0,79,0.00,,,0.09,meteohub,2013-02-28 19:47:00,
2013-02-28 14:52:00,43.7,37.6,29.61,NW,315,1.0,3.0,79,0.00,,,0.09,meteohub,2013-02-28 19:52:00,
2013-02-28 14:57:00,43.5,36.9,29.61,NNE,22,0.0,3.0,77,0.00,,,0.09,meteohub,2013-02-28 19:57:00,
2013-02-28 15:02:00,43.5,36.9,29.61,West,270,0.0,3.0,77,0.00,,,0.09,meteohub,2013-02-28 20:02:00,
2013-02-28 15:07:00,43.5,36.5,29.61,North,0,0.0,3.0,76,0.00,,,0.09,meteohub,2013-02-28 20:07:00,
2013-02-28 15:12:00,43.7,36.3,29.61,NNW,338,2.0,3.0,75,0.00,,,0.09,meteohub,2013-02-28 20:12:00,
2013-02-28 15:17:00,43.5,36.1,29.61,NNW,338,0.0,3.0,75,0.00,,,0.09,meteohub,2013-02-28 20:17:00,
2013-02-28 15:22:00,43.3,36.0,29.61,West,270,0.0,3.0,75,0.00,,,0.09,meteohub,2013-02-28 20:22:00,
2013-02-28 15:27:00,43.2,36.1,29.61,WNW,292,1.0,2.0,76,0.00,,,0.09,meteohub,2013-02-28 20:27:00,
2013-02-28 15:32:00,43.2,35.8,29.58,West,270,0.0,2.0,75,0.00,,,0.09,meteohub,2013-02-28 20:32:00,
2013-02-28 15:37:00,43.0,36.0,29.58,NNE,22,0.0,2.0,76,0.00,,,0.09,meteohub,2013-02-28 20:37:00,
2013-02-28 15:42:00,42.8,35.8,29.58,North,0,1.0,2.0,76,0.00,,,0.09,meteohub,2013-02-28 20:42:00,
2013-02-28 15:47:00,43.0,35.6,29.58,NNE,22,0.0,2.0,75,0.00,,,0.09,meteohub,2013-02-28 20:47:00,
2013-02-28 15:52:00,43.0,35.6,29.58,NNW,338,0.0,3.0,75,0.00,,,0.09,meteohub,2013-02-28 20:52:00,
2013-02-28 15:57:00,42.8,35.4,29.58,North,0,0.0,3.0,75,0.00,,,0.09,meteohub,2013-02-28 20:57:00,
2013-02-28 16:02:00,42.8,35.4,29.61,NNE,22,0.0,3.0,75,0.00,,,0.09,meteohub,2013-02-28 21:02:00,
2013-02-28 16:07:00,42.4,35.1,29.61,NNE,22,0.0,2.0,75,0.00,,,0.09,meteohub,2013-02-28 21:07:00,
2013-02-28 16:12:00,42.3,34.9,29.61,NE,45,0.0,1.0,75,0.00,,,0.09,meteohub,2013-02-28 21:12:00,
2013-02-28 16:17:00,41.9,34.9,29.61,NE,45,1.0,0.0,76,0.00,,,0.09,meteohub,2013-02-28 21:17:00,
2013-02-28 16:22:00,41.5,34.5,29.61,ENE,68,0.0,1.0,76,0.00,,,0.09,meteohub,2013-02-28 21:22:00,
2013-02-28 16:27:00,41.4,34.3,29.61,North,0,1.0,1.0,76,0.00,,,0.09,meteohub,2013-02-28 21:27:00,
2013-02-28 16:32:00,41.4,34.3,29.61,NNW,338,0.0,1.0,76,0.00,,,0.09,meteohub,2013-02-28 21:32:00,
2013-02-28 16:37:00,41.2,34.2,29.61,North,0,2.0,2.0,76,0.00,,,0.09,meteohub,2013-02-28 21:37:00,
2013-02-28 16:42:00,41.2,34.2,29.61,NE,45,0.0,2.0,76,0.00,,,0.09,meteohub,2013-02-28 21:42:00,
2013-02-28 16:47:00,41.0,34.3,29.61,NNE,22,0.0,2.0,77,0.00,,,0.09,meteohub,2013-02-28 21:47:00,
2013-02-28 16:52:00,40.6,34.0,29.61,ESE,112,0.0,2.0,77,0.00,,,0.09,meteohub,2013-02-28 21:52:00,
2013-02-28 16:57:00,40.3,34.0,29.61,ESE,112,0.0,0.0,78,0.00,,,0.09,meteohub,2013-02-28 21:57:00,
2013-02-28 17:02:00,40.1,33.8,29.61,ESE,112,0.0,0.0,78,0.00,,,0.09,meteohub,2013-02-28 22:02:00,
2013-02-28 17:07:00,39.9,33.6,29.61,ESE,112,0.0,0.0,78,0.00,,,0.09,meteohub,2013-02-28 22:07:00,
2013-02-28 17:12:00,39.7,33.8,29.61,ESE,112,0.0,0.0,79,0.00,,,0.09,meteohub,2013-02-28 22:12:00,
2013-02-28 17:17:00,39.6,34.0,29.61,ESE,112,0.0,0.0,80,0.00,,,0.09,meteohub,2013-02-28 22:17:00,
2013-02-28 17:22:00,39.4,33.8,29.61,ESE,112,2.0,2.0,80,0.00,,,0.09,meteohub,2013-02-28 22:22:00,
2013-02-28 17:27:00,39.2,33.8,29.61,ESE,112,2.0,2.0,81,0.00,,,0.09,meteohub,2013-02-28 22:27:00,
2013-02-28 18:22:00,37.6,33.8,29.61,ESE,112,0.0,61.0,86,0.00,,,0.09,meteohub,2013-02-28 23:22:00,
2013-02-28 18:27:00,37.4,33.6,29.61,East,90,0.0,61.0,86,0.00,,,0.09,meteohub,2013-02-28 23:27:00,
2013-02-28 18:32:00,37.4,33.6,29.61,East,90,0.0,61.0,86,0.00,,,0.09,meteohub,2013-02-28 23:32:00,
2013-02-28 18:37:00,37.0,33.6,29.61,ESE,112,0.0,0.0,87,0.00,,,0.09,meteohub,2013-02-28 23:37:00,
2013-02-28 18:42:00,37.0,33.6,29.61,East,90,1.0,0.0,87,0.00,,,0.09,meteohub,2013-02-28 23:42:00,
2013-02-28 18:47:00,36.9,33.4,29.61,SE,135,0.0,1.0,87,0.00,,,0.09,meteohub,2013-02-28 23:47:00,
2013-02-28 18:52:00,36.7,33.4,29.61,ESE,112,0.0,1.0,88,0.00,,,0.09,meteohub,2013-02-28 23:52:00,
2013-02-28 18:57:00,36.5,33.3,29.61,ESE,112,2.0,2.0,88,0.00,,,0.09,meteohub,2013-02-28 23:57:00,
2013-02-28 19:02:00,36.3,33.1,29.61,SE,135,0.0,2.0,88,0.00,,,0.09,meteohub,2013-03-01 00:02:00,
2013-02-28 19:07:00,36.1,32.9,29.61,SE,135,0.0,2.0,88,0.00,,,0.00,meteohub,2013-03-01 00:07:00,
2013-02-28 19:12:00,36.0,32.7,29.61,ESE,112,0.0,2.0,88,0.00,,,0.00,meteohub,2013-03-01 00:12:00,
2013-02-28 19:17:00,35.8,32.9,29.61,NW,315,0.0,2.0,89,0.00,,,0.00,meteohub,2013-03-01 00:17:00,
2013-02-28 19:22:00,35.6,32.7,29.61,WNW,292,0.0,2.0,89,0.00,,,0.00,meteohub,2013-03-01 00:22:00,
2013-02-28 19:27:00,35.4,32.7,29.61,SSW,202,0.0,2.0,90,0.00,,,0.00,meteohub,2013-03-01 00:27:00,
2013-02-28 19:32:00,35.4,32.7,29.61,SSE,158,0.0,2.0,90,0.00,,,0.00,meteohub,2013-03-01 00:32:00,
2013-02-28 19:37:00,35.1,32.4,29.61,SSE,158,0.0,0.0,90,0.00,,,0.00,meteohub,2013-03-01 00:37:00,
2013-02-28 19:42:00,35.1,32.7,29.61,SSE,158,0.0,0.0,91,0.00,,,0.00,meteohub,2013-03-01 00:42:00,
2013-02-28 19:47:00,34.9,32.5,29.61,SSE,158,0.0,0.0,91,0.00,,,0.00,meteohub,2013-03-01 00:47:00,
2013-02-28 19:52:00,34.5,32.2,29.61,SSW,202,0.0,0.0,91,0.00,,,0.00,meteohub,2013-03-01 00:52:00,
2013-02-28 20:02:00,34.3,32.2,29.61,South,180,0.0,2.0,92,0.00,,,0.00,meteohub,2013-03-01 01:02:00,
2013-02-28 20:12:00,34.3,32.5,29.61,SE,135,0.0,2.0,93,0.00,,,0.00,meteohub,2013-03-01 01:12:00,
2013-02-28 20:17:00,34.3,32.5,29.61,SE,135,1.0,2.0,93,0.00,,,0.00,meteohub,2013-03-01 01:17:00,
2013-02-28 20:22:00,34.3,32.5,29.61,ESE,112,2.0,2.0,93,0.00,,,0.00,meteohub,2013-03-01 01:22:00,
2013-02-28 20:27:00,34.3,32.5,29.61,South,180,0.0,2.0,93,0.00,,,0.00,meteohub,2013-03-01 01:27:00,
2013-02-28 20:32:00,34.3,32.7,29.61,SE,135,0.0,2.0,94,0.00,,,0.00,meteohub,2013-03-01 01:32:00,
2013-02-28 20:37:00,34.2,32.5,29.61,SE,135,0.0,2.0,94,0.00,,,0.00,meteohub,2013-03-01 01:37:00,
2013-02-28 20:42:00,34.2,32.5,29.61,SE,135,0.0,0.0,94,0.00,,,0.00,meteohub,2013-03-01 01:42:00,
2013-02-28 20:47:00,34.0,32.4,29.61,SSE,158,0.0,0.0,94,0.00,,,0.00,meteohub,2013-03-01 01:47:00,
2013-02-28 20:52:00,34.0,32.4,29.61,ESE,112,0.0,0.0,94,0.00,,,0.00,meteohub,2013-03-01 01:52:00,
2013-02-28 20:57:00,34.0,32.4,29.61,ESE,112,2.0,2.0,94,0.00,,,0.00,meteohub,2013-03-01 01:57:00,
2013-02-28 21:02:00,34.0,32.7,29.61,ESE,112,0.0,2.0,95,0.00,,,0.00,meteohub,2013-03-01 02:02:00,
2013-02-28 21:07:00,33.8,32.2,29.61,ESE,112,0.0,2.0,94,0.00,,,0.00,meteohub,2013-03-01 02:07:00,
2013-02-28 21:12:00,33.8,32.5,29.61,South,180,1.0,2.0,95,0.00,,,0.00,meteohub,2013-03-01 02:12:00,
2013-02-28 21:17:00,33.6,32.4,29.61,SE,135,1.0,3.0,95,0.00,,,0.00,meteohub,2013-03-01 02:17:00,
2013-02-28 21:22:00,33.6,32.4,29.61,ESE,112,0.0,3.0,95,0.00,,,0.00,meteohub,2013-03-01 02:22:00,
2013-02-28 21:27:00,33.4,32.2,29.61,ESE,112,0.0,3.0,95,0.00,,,0.00,meteohub,2013-03-01 02:27:00,
2013-02-28 21:32:00,33.4,32.2,29.61,ENE,68,2.0,2.0,95,0.00,,,0.00,meteohub,2013-03-01 02:32:00,
2013-02-28 21:37:00,33.3,32.0,29.61,North,0,0.0,3.0,95,0.00,,,0.00,meteohub,2013-03-01 02:37:00,
2013-02-28 21:42:00,33.1,31.8,29.61,ENE,68,0.0,3.0,95,0.00,,,0.00,meteohub,2013-03-01 02:42:00,
2013-02-28 21:47:00,33.1,31.8,29.61,ENE,68,0.0,3.0,95,0.00,,,0.00,meteohub,2013-03-01 02:47:00,
2013-02-28 21:52:00,33.1,32.0,29.61,East,90,0.0,0.0,96,0.00,,,0.00,meteohub,2013-03-01 02:52:00,
2013-02-28 21:57:00,33.3,32.2,29.61,East,90,0.0,0.0,96,0.00,,,0.00,meteohub,2013-03-01 02:57:00,
2013-02-28 22:02:00,33.3,32.2,29.61,East,90,0.0,0.0,96,0.00,,,0.00,meteohub,2013-03-01 03:02:00,
2013-02-28 22:07:00,33.1,32.0,29.61,East,90,0.0,0.0,96,0.00,,,0.00,meteohub,2013-03-01 03:07:00,
2013-02-28 22:12:00,32.9,31.8,29.61,East,90,0.0,0.0,96,0.00,,,0.00,meteohub,2013-03-01 03:12:00,
2013-02-28 22:17:00,32.7,31.6,29.61,East,90,0.0,0.0,96,0.00,,,0.00,meteohub,2013-03-01 03:17:00,
2013-02-28 22:22:00,32.7,31.6,29.61,East,90,0.0,0.0,96,0.00,,,0.00,meteohub,2013-03-01 03:22:00,
2013-02-28 22:27:00,32.9,31.8,29.61,East,90,0.0,0.0,96,0.00,,,0.00,meteohub,2013-03-01 03:27:00,
2013-02-28 22:32:00,32.9,31.8,29.61,ESE,112,0.0,0.0,96,0.00,,,0.00,meteohub,2013-03-01 03:32:00,
2013-02-28 22:37:00,32.9,32.2,29.61,East,90,0.0,0.0,97,0.00,,,0.00,meteohub,2013-03-01 03:37:00,
2013-02-28 22:42:00,32.9,32.2,29.61,East,90,0.0,0.0,97,0.00,,,0.00,meteohub,2013-03-01 03:42:00,
2013-02-28 22:47:00,33.1,32.4,29.61,East,90,0.0,0.0,97,0.00,,,0.00,meteohub,2013-03-01 03:47:00,
2013-02-28 22:52:00,33.1,32.4,29.61,ENE,68,0.0,0.0,97,0.00,,,0.00,meteohub,2013-03-01 03:52:00,
2013-02-28 22:57:00,33.3,32.5,29.61,ENE,68,0.0,0.0,97,0.00,,,0.00,meteohub,2013-03-01 03:57:00,
2013-02-28 23:02:00,33.3,32.7,29.61,ENE,68,0.0,0.0,98,0.00,,,0.00,meteohub,2013-03-01 04:02:00,
2013-02-28 23:07:00,33.4,32.9,29.61,ENE,68,0.0,0.0,98,0.00,,,0.00,meteohub,2013-03-01 04:07:00,
2013-02-28 23:12:00,33.4,32.9,29.58,ENE,68,0.0,0.0,98,0.00,,,0.00,meteohub,2013-03-01 04:12:00,
2013-02-28 23:17:00,33.6,33.1,29.58,ENE,68,0.0,0.0,98,0.00,,,0.00,meteohub,2013-03-01 04:17:00,
2013-02-28 23:22:00,33.6,33.1,29.58,ENE,68,0.0,0.0,98,0.00,,,0.00,meteohub,2013-03-01 04:22:00,
2013-02-28 23:27:00,33.8,33.3,29.58,ENE,68,0.0,0.0,98,0.00,,,0.00,meteohub,2013-03-01 04:27:00,
2013-02-28 23:32:00,33.8,33.3,29.58,ENE,68,0.0,0.0,98,0.00,,,0.00,meteohub,2013-03-01 04:32:00,
2013-02-28 23:37:00,34.0,33.3,29.58,ENE,68,0.0,0.0,97,0.00,,,0.00,meteohub,2013-03-01 04:37:00,
2013-02-28 23:42:00,34.0,33.3,29.58,ENE,68,0.0,0.0,97,0.00,,,0.00,meteohub,2013-03-01 04:42:00,
2013-02-28 23:47:00,34.0,33.3,29.58,ENE,68,0.0,0.0,97,0.00,,,0.00,meteohub,2013-03-01 04:47:00,
2013-02-28 23:52:00,34.2,33.4,29.58,ENE,68,0.0,0.0,97,0.00,,,0.00,meteohub,2013-03-01 04:52:00,
2013-02-28 23:57:00,34.2,33.4,29.61,ENE,68,0.0,0.0,97,0.00,,,0.00,meteohub,2013-03-01 04:57:00,